DLH444 EDDF-KATL

Flight info

Callsign DLH444
Flight time N/A
Altitude 36000
Route OBOKA3W OBOKA Z29 TORNU DCT BATAK DCT GALSO Q63 ERING L179 UGBET Q60 OKSAW DCT BIBPE DCT FELCA DCT FADZU DCT OFSOX/N0487F380 DCT SLANY DCT TOBOR/M085F390 NATC ELSIR/N0478F400 N404E EBONY DCT ENE DCT BAF Q448 PTW J48 MOL DCT FLASK OZZZI2
Aircraft A359/H-SDE2E3GHIJ3J4J5LM1ORWXY/LB1D1

Departure

Time 2026-05-06 10:54
Airport Frankfurt Main Airport (EDDF)

Arrival

Time N/A
Airport Hartsfield Jackson Atlanta International Airport (KATL)
Time Latitude Longitude Altitude Speed Heading
2026-05-06 10:07 50.04754 8.56390 368 ft 0 kts 340°
2026-05-06 10:41 50.04751 8.56391 362 ft 3 kts 339°
2026-05-06 10:41 50.04726 8.56406 366 ft 4 kts 336°
2026-05-06 10:41 50.04702 8.56425 367 ft 4 kts 327°
2026-05-06 10:41 50.04682 8.56449 367 ft 4 kts 309°
2026-05-06 10:42 50.04671 8.56474 367 ft 3 kts 297°
2026-05-06 10:42 50.04660 8.56499 369 ft 4 kts 337°
2026-05-06 10:42 50.04642 8.56504 368 ft 4 kts 19°
2026-05-06 10:42 50.04639 8.56502 367 ft 3 kts 22°
2026-05-06 10:43 50.04655 8.56496 369 ft 4 kts 338°
2026-05-06 10:43 50.04666 8.56473 366 ft 4 kts 297°
2026-05-06 10:43 50.04667 8.56438 367 ft 4 kts 264°
2026-05-06 10:44 50.04659 8.56404 367 ft 1 kts 250°
2026-05-06 10:46 50.04656 8.56388 365 ft 7 kts 250°
2026-05-06 10:46 50.04637 8.56308 363 ft 8 kts 250°
2026-05-06 10:46 50.04616 8.56218 367 ft 9 kts 250°
2026-05-06 10:46 50.04593 8.56120 366 ft 10 kts 250°
2026-05-06 10:47 50.04567 8.56017 365 ft 11 kts 246°
2026-05-06 10:47 50.04513 8.55951 368 ft 10 kts 201°
2026-05-06 10:47 50.04449 8.55917 368 ft 10 kts 199°
2026-05-06 10:47 50.04380 8.55913 366 ft 12 kts 168°
2026-05-06 10:48 50.04274 8.55992 367 ft 14 kts 116°
2026-05-06 10:48 50.04286 8.56142 365 ft 14 kts 71°
2026-05-06 10:48 50.04265 8.56224 364 ft 7 kts 156°
2026-05-06 10:48 50.04192 8.56266 364 ft 17 kts 160°
2026-05-06 10:49 50.04153 8.56381 363 ft 14 kts 76°
2026-05-06 10:49 50.04189 8.56546 367 ft 16 kts 70°
2026-05-06 10:49 50.04228 8.56706 367 ft 15 kts 69°
2026-05-06 10:49 50.04265 8.56859 370 ft 15 kts 69°
2026-05-06 10:50 50.04305 8.57024 372 ft 17 kts 69°
2026-05-06 10:50 50.04347 8.57204 369 ft 18 kts 70°
2026-05-06 10:50 50.04393 8.57399 373 ft 20 kts 70°
2026-05-06 10:50 50.04441 8.57608 374 ft 20 kts 69°
2026-05-06 10:51 50.04492 8.57817 372 ft 22 kts 69°
2026-05-06 10:51 50.04546 8.58046 374 ft 24 kts 70°
2026-05-06 10:51 50.04602 8.58270 379 ft 19 kts 70°
2026-05-06 10:51 50.04647 8.58466 377 ft 18 kts 71°
2026-05-06 10:52 50.04618 8.58567 375 ft 10 kts 144°
2026-05-06 10:52 50.04555 8.58610 376 ft 10 kts 158°
2026-05-06 10:52 50.04496 8.58599 377 ft 8 kts 228°
2026-05-06 10:52 50.04476 8.58535 376 ft 0 kts 251°
2026-05-06 10:53 50.04457 8.58455 376 ft 31 kts 249°
2026-05-06 10:53 50.04306 8.57829 373 ft 90 kts 250°
2026-05-06 10:54 50.04027 8.56662 366 ft 140 kts 250°
2026-05-06 10:54 50.03639 8.55041 436 ft 175 kts 246°
2026-05-06 10:54 50.03198 8.53291 1062 ft 170 kts 246°
2026-05-06 10:54 50.02750 8.51567 1607 ft 175 kts 246°
2026-05-06 10:55 50.02235 8.49760 1807 ft 191 kts 239°
2026-05-06 10:55 50.01218 8.48378 2082 ft 200 kts 207°
2026-05-06 10:55 49.99882 8.47784 2549 ft 200 kts 189°
2026-05-06 10:55 49.98487 8.47505 2959 ft 208 kts 187°
2026-05-06 10:56 49.97012 8.47235 3517 ft 216 kts 187°
2026-05-06 10:56 49.95531 8.46816 4218 ft 220 kts 193°
2026-05-06 10:56 49.94020 8.46172 4656 ft 230 kts 196°
2026-05-06 10:56 49.92474 8.45424 5208 ft 234 kts 200°
2026-05-06 10:57 49.91100 8.44055 5709 ft 240 kts 228°
2026-05-06 10:57 49.90179 8.41927 6289 ft 242 kts 238°
2026-05-06 10:57 49.89333 8.39647 6780 ft 246 kts 239°
2026-05-06 10:57 49.88641 8.37198 7262 ft 252 kts 255°
2026-05-06 10:58 49.88539 8.34430 7591 ft 265 kts 271°
2026-05-06 10:58 49.88703 8.31518 7978 ft 274 kts 274°
2026-05-06 10:58 49.88908 8.28552 8513 ft 278 kts 276°
2026-05-06 10:58 49.89475 8.25660 9047 ft 286 kts 297°
2026-05-06 10:59 49.90601 8.23110 9646 ft 289 kts 306°
2026-05-06 10:59 49.91839 8.20598 10106 ft 297 kts 306°
2026-05-06 10:59 49.93113 8.17990 10371 ft 309 kts 306°
2026-05-06 10:59 49.94533 8.15404 10634 ft 322 kts 314°
2026-05-06 11:00 49.96237 8.13030 10917 ft 334 kts 318°
2026-05-06 11:00 49.98038 8.10661 11258 ft 345 kts 319°
2026-05-06 11:00 49.99897 8.08219 11525 ft 356 kts 318°
2026-05-06 11:00 50.01807 8.05689 11837 ft 365 kts 318°
2026-05-06 11:01 50.03743 8.03109 12232 ft 370 kts 318°
2026-05-06 11:01 50.05706 8.00486 12680 ft 374 kts 318°
2026-05-06 11:01 50.07688 7.97829 13190 ft 378 kts 318°
2026-05-06 11:01 50.09689 7.95144 13660 ft 381 kts 318°
2026-05-06 11:02 50.11700 7.92441 14049 ft 384 kts 318°
2026-05-06 11:02 50.13726 7.89713 14416 ft 387 kts 318°
2026-05-06 11:02 50.15775 7.86951 14809 ft 389 kts 317°
2026-05-06 11:02 50.17827 7.84182 15239 ft 392 kts 317°
2026-05-06 11:03 50.19900 7.81381 15691 ft 395 kts 317°
2026-05-06 11:03 50.21952 7.78607 16076 ft 398 kts 317°
2026-05-06 11:03 50.24054 7.75771 16482 ft 400 kts 318°
2026-05-06 11:03 50.26351 7.73287 16863 ft 405 kts 330°
2026-05-06 11:04 50.28907 7.71374 17270 ft 408 kts 335°
2026-05-06 11:04 50.31520 7.69600 17705 ft 411 kts 335°
2026-05-06 11:04 50.34150 7.67830 18102 ft 413 kts 335°
2026-05-06 11:04 50.36801 7.66036 18449 ft 415 kts 335°
2026-05-06 11:05 50.39458 7.64233 18801 ft 417 kts 335°
2026-05-06 11:05 50.42118 7.62410 19151 ft 419 kts 335°
2026-05-06 11:05 50.44799 7.60567 19487 ft 421 kts 335°
2026-05-06 11:05 50.47484 7.58717 19803 ft 423 kts 335°
2026-05-06 11:06 50.50184 7.56854 20135 ft 425 kts 335°
2026-05-06 11:06 50.52898 7.54980 20463 ft 427 kts 335°
2026-05-06 11:06 50.55596 7.53012 20782 ft 428 kts 330°
2026-05-06 11:06 50.58132 7.50644 21102 ft 429 kts 326°
2026-05-06 11:07 50.60678 7.48052 21426 ft 431 kts 325°
2026-05-06 11:07 50.63191 7.45459 21742 ft 433 kts 325°
2026-05-06 11:07 50.65688 7.42884 22071 ft 435 kts 325°
2026-05-06 11:07 50.68227 7.40269 22390 ft 437 kts 325°
2026-05-06 11:08 50.70784 7.37633 22690 ft 439 kts 325°
2026-05-06 11:08 50.73222 7.34735 22984 ft 439 kts 316°
2026-05-06 11:08 50.75239 7.31135 23312 ft 438 kts 302°
2026-05-06 11:08 50.76846 7.27052 23603 ft 438 kts 297°
2026-05-06 11:09 50.78300 7.22822 23883 ft 438 kts 295°
2026-05-06 11:09 50.79676 7.18518 24165 ft 439 kts 294°
2026-05-06 11:09 50.81024 7.14181 24440 ft 440 kts 294°
2026-05-06 11:09 50.82379 7.09821 24715 ft 441 kts 294°
2026-05-06 11:10 50.83745 7.05471 25027 ft 443 kts 294°
2026-05-06 11:10 50.85132 7.01104 25331 ft 444 kts 294°
2026-05-06 11:10 50.86511 6.96796 25622 ft 446 kts 295°
2026-05-06 11:10 50.87919 6.92411 25923 ft 447 kts 295°
2026-05-06 11:11 50.89330 6.88025 26213 ft 449 kts 295°
2026-05-06 11:11 50.90751 6.83610 26518 ft 450 kts 295°
2026-05-06 11:11 50.92172 6.79186 26802 ft 452 kts 295°
2026-05-06 11:11 50.93601 6.74730 27091 ft 454 kts 295°
2026-05-06 11:12 50.95033 6.70252 27354 ft 455 kts 294°
2026-05-06 11:12 50.96464 6.65766 27650 ft 457 kts 294°
2026-05-06 11:12 50.97900 6.61254 27949 ft 459 kts 294°
2026-05-06 11:12 50.99341 6.56717 28234 ft 461 kts 294°
2026-05-06 11:13 51.00786 6.52161 28524 ft 463 kts 294°
2026-05-06 11:13 51.02238 6.47576 28847 ft 465 kts 294°
2026-05-06 11:13 51.03689 6.42986 29244 ft 467 kts 294°
2026-05-06 11:13 51.05148 6.38356 29584 ft 470 kts 294°
2026-05-06 11:14 51.06619 6.33683 29899 ft 472 kts 294°
2026-05-06 11:14 51.08086 6.29016 30211 ft 473 kts 294°
2026-05-06 11:14 51.09558 6.24319 30484 ft 474 kts 293°
2026-05-06 11:14 51.11028 6.19621 30745 ft 475 kts 293°
2026-05-06 11:15 51.12500 6.14909 31008 ft 476 kts 293°
2026-05-06 11:15 51.13817 6.10088 31259 ft 474 kts 286°
2026-05-06 11:15 51.14799 6.05085 31532 ft 473 kts 283°
2026-05-06 11:15 51.15681 6.00038 31876 ft 474 kts 281°
2026-05-06 11:16 51.16516 5.94979 32363 ft 471 kts 281°
2026-05-06 11:16 51.17324 5.89939 32894 ft 468 kts 281°
2026-05-06 11:16 51.18281 5.84972 33299 ft 470 kts 286°
2026-05-06 11:16 51.19627 5.80199 33624 ft 473 kts 294°
2026-05-06 11:17 51.21214 5.75605 33942 ft 474 kts 295°
2026-05-06 11:17 51.22884 5.71059 34170 ft 474 kts 296°
2026-05-06 11:17 51.24589 5.66556 34361 ft 475 kts 297°
2026-05-06 11:17 51.26311 5.62050 34562 ft 476 kts 297°
2026-05-06 11:18 51.28034 5.57540 34771 ft 476 kts 297°
2026-05-06 11:18 51.29755 5.53005 34992 ft 476 kts 297°
2026-05-06 11:18 51.31440 5.48536 35192 ft 476 kts 297°
2026-05-06 11:18 51.33140 5.44001 35392 ft 476 kts 297°
2026-05-06 11:19 51.34835 5.39458 35600 ft 476 kts 297°
2026-05-06 11:19 51.36532 5.34897 35788 ft 476 kts 297°
2026-05-06 11:19 51.38227 5.30330 35862 ft 480 kts 297°
2026-05-06 11:20 51.41661 5.21051 35860 ft 484 kts 297°
2026-05-06 11:20 51.44503 5.13357 35859 ft 483 kts 297°
2026-05-06 11:21 51.47919 5.04079 35859 ft 483 kts 297°
2026-05-06 11:21 51.51328 4.94783 35858 ft 483 kts 297°
2026-05-06 11:22 51.54725 4.85483 35856 ft 482 kts 297°
2026-05-06 11:22 51.56236 4.80687 36034 ft 480 kts 291°
2026-05-06 11:22 51.57332 4.75622 35884 ft 481 kts 283°
2026-05-06 11:23 51.58685 4.65041 35857 ft 483 kts 278°
2026-05-06 11:23 51.59785 4.54385 35876 ft 483 kts 277°
2026-05-06 11:24 51.60852 4.43718 35878 ft 483 kts 277°
2026-05-06 11:24 51.61938 4.33047 35881 ft 483 kts 278°
2026-05-06 11:25 51.63029 4.22398 35878 ft 483 kts 278°
2026-05-06 11:25 51.64115 4.11738 35880 ft 482 kts 278°
2026-05-06 11:26 51.65193 4.01064 35886 ft 482 kts 278°
2026-05-06 11:26 51.66256 3.90410 35889 ft 482 kts 277°
2026-05-06 11:27 51.67304 3.79816 35896 ft 482 kts 277°
2026-05-06 11:27 51.68346 3.69147 35900 ft 481 kts 277°
2026-05-06 11:28 51.69377 3.58479 35904 ft 481 kts 277°
2026-05-06 11:28 51.70403 3.47833 35912 ft 481 kts 277°
2026-05-06 11:29 51.71414 3.37184 35917 ft 480 kts 277°
2026-05-06 11:29 51.72426 3.26541 35924 ft 480 kts 277°
2026-05-06 11:30 51.72997 3.15854 35923 ft 477 kts 266°
2026-05-06 11:30 51.72338 3.05232 35926 ft 476 kts 261°
2026-05-06 11:31 51.71414 2.94714 35930 ft 476 kts 260°
2026-05-06 11:31 51.70440 2.84153 35929 ft 476 kts 260°
2026-05-06 11:32 51.69481 2.73598 35929 ft 476 kts 261°
2026-05-06 11:32 51.68535 2.63029 35933 ft 476 kts 261°
2026-05-06 11:33 51.67588 2.52469 35937 ft 476 kts 261°
2026-05-06 11:33 51.66636 2.41916 35938 ft 476 kts 261°
2026-05-06 11:34 51.65663 2.31358 35943 ft 476 kts 261°
2026-05-06 11:34 51.64678 2.20811 35941 ft 476 kts 261°
2026-05-06 11:35 51.63684 2.10266 35945 ft 476 kts 261°
2026-05-06 11:35 51.62706 1.99717 35944 ft 476 kts 261°
2026-05-06 11:36 51.61732 1.89167 35946 ft 476 kts 261°
2026-05-06 11:36 51.60744 1.78630 35948 ft 476 kts 261°
2026-05-06 11:37 51.59741 1.68100 35949 ft 476 kts 261°
2026-05-06 11:37 51.59280 1.57554 35956 ft 477 kts 271°
2026-05-06 11:38 51.59623 1.46901 35954 ft 477 kts 273°
2026-05-06 11:38 51.60106 1.36255 35953 ft 477 kts 273°
2026-05-06 11:39 51.60586 1.25587 35957 ft 477 kts 273°
2026-05-06 11:39 51.61034 1.14939 35959 ft 477 kts 273°
2026-05-06 11:40 51.61455 1.04284 35962 ft 477 kts 273°
2026-05-06 11:40 51.61866 0.93614 35965 ft 477 kts 273°
2026-05-06 11:41 51.62271 0.83026 35965 ft 477 kts 273°
2026-05-06 11:41 51.62663 0.72384 35966 ft 476 kts 273°
2026-05-06 11:42 51.63049 0.61753 35968 ft 476 kts 273°
2026-05-06 11:42 51.63425 0.51121 35967 ft 475 kts 272°
2026-05-06 11:43 51.63787 0.40502 35967 ft 475 kts 272°
2026-05-06 11:43 51.64136 0.29878 35985 ft 475 kts 272°
2026-05-06 11:44 51.64350 0.13967 35989 ft 474 kts 264°
2026-05-06 11:44 51.63410 0.03462 35991 ft 474 kts 260°
2026-05-06 11:45 51.62288 -0.06968 35990 ft 473 kts 261°
2026-05-06 11:45 51.62078 -0.17544 36019 ft 474 kts 273°
2026-05-06 11:46 51.62626 -0.28118 36022 ft 474 kts 275°
2026-05-06 11:46 51.63307 -0.38675 35991 ft 474 kts 275°
2026-05-06 11:47 51.63975 -0.49242 35993 ft 474 kts 275°
2026-05-06 11:47 51.64607 -0.59796 35993 ft 473 kts 275°
2026-05-06 11:48 51.65215 -0.70321 35994 ft 473 kts 275°
2026-05-06 11:48 51.65814 -0.80880 35996 ft 473 kts 275°
2026-05-06 11:49 51.66402 -0.91387 35995 ft 473 kts 275°
2026-05-06 11:49 51.66983 -1.01948 35993 ft 473 kts 274°
2026-05-06 11:50 51.67555 -1.12502 35992 ft 473 kts 274°
2026-05-06 11:50 51.68118 -1.23066 35995 ft 473 kts 274°
2026-05-06 11:51 51.68672 -1.33629 36018 ft 473 kts 274°
2026-05-06 11:51 51.69215 -1.44192 36022 ft 473 kts 274°
2026-05-06 11:52 51.69750 -1.54759 36022 ft 473 kts 274°
2026-05-06 11:52 51.70274 -1.65322 36021 ft 473 kts 274°
2026-05-06 11:53 51.70860 -1.75889 36027 ft 473 kts 276°
2026-05-06 11:53 51.71652 -1.86414 36026 ft 473 kts 276°
2026-05-06 11:54 51.72464 -1.96939 36028 ft 472 kts 276°
2026-05-06 11:54 51.73221 -2.07393 36044 ft 472 kts 276°
2026-05-06 11:55 51.73951 -2.17903 36043 ft 472 kts 276°
2026-05-06 11:55 51.74669 -2.28428 36043 ft 471 kts 276°
2026-05-06 11:56 51.75379 -2.38944 36039 ft 471 kts 275°
2026-05-06 11:56 51.76081 -2.49463 36035 ft 471 kts 275°
2026-05-06 11:57 51.76774 -2.59976 36042 ft 471 kts 275°
2026-05-06 11:57 51.77456 -2.70477 36044 ft 470 kts 275°
2026-05-06 11:58 51.78128 -2.80981 36047 ft 470 kts 275°
2026-05-06 11:58 51.78791 -2.91482 36048 ft 470 kts 275°
2026-05-06 11:59 51.79443 -3.01974 36046 ft 469 kts 275°
2026-05-06 11:59 51.80086 -3.12468 36047 ft 469 kts 275°
2026-05-06 12:00 51.80717 -3.22909 36032 ft 469 kts 275°
2026-05-06 12:00 51.81341 -3.33392 36039 ft 469 kts 275°
2026-05-06 12:01 51.81955 -3.43871 36039 ft 468 kts 275°
2026-05-06 12:01 51.82667 -3.54340 36026 ft 469 kts 279°
2026-05-06 12:02 51.83913 -3.64707 36023 ft 469 kts 281°
2026-05-06 12:02 51.85100 -3.73858 36019 ft 469 kts 281°
2026-05-06 12:03 51.86444 -3.84175 36021 ft 469 kts 281°
2026-05-06 12:03 51.87768 -3.94485 36020 ft 468 kts 281°
2026-05-06 12:04 51.89081 -4.04815 36021 ft 468 kts 281°
2026-05-06 12:04 51.90378 -4.15161 36023 ft 468 kts 281°
2026-05-06 12:05 51.91663 -4.25504 36025 ft 468 kts 281°
2026-05-06 12:05 51.92932 -4.35775 36025 ft 468 kts 281°
2026-05-06 12:06 51.94201 -4.46116 36025 ft 468 kts 281°
2026-05-06 12:06 51.95461 -4.56462 36027 ft 468 kts 281°
2026-05-06 12:07 51.96713 -4.66826 36030 ft 468 kts 281°
2026-05-06 12:07 51.97954 -4.77175 36030 ft 467 kts 280°
2026-05-06 12:08 51.98977 -4.85773 36028 ft 467 kts 280°
2026-05-06 12:08 52.00201 -4.96136 36033 ft 467 kts 280°
2026-05-06 12:09 52.01415 -5.06492 36036 ft 467 kts 280°
2026-05-06 12:09 52.02631 -5.16848 36033 ft 467 kts 282°
2026-05-06 12:10 52.04418 -5.26973 36033 ft 467 kts 287°
2026-05-06 12:10 52.06429 -5.37013 36033 ft 467 kts 288°
2026-05-06 12:11 52.08468 -5.47034 36035 ft 467 kts 288°
2026-05-06 12:11 52.10489 -5.57067 36035 ft 467 kts 287°
2026-05-06 12:12 52.12490 -5.67110 36037 ft 467 kts 287°
2026-05-06 12:12 52.14466 -5.77098 36040 ft 467 kts 287°
2026-05-06 12:13 52.16052 -5.87326 36045 ft 466 kts 278°
2026-05-06 12:13 52.16948 -5.97794 36039 ft 467 kts 277°
2026-05-06 12:14 52.17716 -6.08301 36040 ft 467 kts 276°
2026-05-06 12:14 52.18468 -6.18803 36037 ft 467 kts 277°
2026-05-06 12:15 52.19226 -6.29311 36037 ft 467 kts 277°
2026-05-06 12:15 52.19985 -6.39842 36036 ft 467 kts 277°
2026-05-06 12:16 52.20737 -6.50368 36032 ft 467 kts 277°
2026-05-06 12:16 52.21478 -6.60894 36033 ft 467 kts 276°
2026-05-06 12:17 52.22209 -6.71430 36036 ft 468 kts 276°
2026-05-06 12:17 52.22931 -6.81975 36040 ft 468 kts 276°
2026-05-06 12:18 52.23646 -6.92546 36049 ft 469 kts 276°
2026-05-06 12:18 52.24345 -7.03042 36045 ft 469 kts 276°
2026-05-06 12:19 52.25041 -7.13619 36049 ft 469 kts 276°
2026-05-06 12:19 52.25727 -7.24204 36047 ft 469 kts 276°
2026-05-06 12:20 52.26406 -7.34821 36040 ft 470 kts 276°
2026-05-06 12:20 52.27075 -7.45435 36036 ft 470 kts 276°
2026-05-06 12:21 52.27734 -7.56056 36030 ft 470 kts 276°
2026-05-06 12:21 52.28385 -7.66698 36022 ft 471 kts 276°
2026-05-06 12:22 52.29027 -7.77346 36025 ft 471 kts 276°
2026-05-06 12:22 52.29655 -7.87934 36019 ft 472 kts 276°
2026-05-06 12:23 52.30279 -7.98600 36019 ft 472 kts 276°
2026-05-06 12:23 52.30894 -8.09299 36018 ft 472 kts 276°
2026-05-06 12:24 52.31499 -8.19990 36018 ft 473 kts 276°
2026-05-06 12:24 52.32094 -8.30689 36016 ft 473 kts 276°
2026-05-06 12:25 52.32681 -8.41404 36010 ft 474 kts 276°
2026-05-06 12:25 52.33259 -8.52149 36012 ft 474 kts 276°
2026-05-06 12:26 52.33828 -8.62890 36014 ft 475 kts 276°
2026-05-06 12:26 52.34388 -8.73652 36015 ft 475 kts 276°
2026-05-06 12:27 52.34938 -8.84428 36014 ft 476 kts 276°
2026-05-06 12:27 52.35478 -8.95205 36017 ft 476 kts 276°
2026-05-06 12:28 52.36011 -9.06018 36017 ft 477 kts 276°
2026-05-06 12:28 52.36530 -9.16764 36019 ft 477 kts 276°
2026-05-06 12:29 52.37043 -9.27600 36020 ft 478 kts 276°
2026-05-06 12:29 52.37547 -9.38449 36020 ft 478 kts 276°
2026-05-06 12:30 52.38041 -9.49313 36020 ft 479 kts 276°
2026-05-06 12:30 52.38526 -9.60180 36022 ft 479 kts 276°
2026-05-06 12:31 52.39003 -9.71091 36024 ft 480 kts 276°
2026-05-06 12:31 52.39469 -9.81993 36029 ft 480 kts 276°
2026-05-06 12:32 52.39926 -9.92908 36035 ft 481 kts 276°
2026-05-06 12:32 52.40372 -10.03833 36043 ft 481 kts 276°
2026-05-06 12:33 52.40809 -10.14765 36045 ft 481 kts 276°
2026-05-06 12:33 52.41236 -10.25701 36045 ft 481 kts 275°
2026-05-06 12:34 52.41650 -10.36573 36042 ft 482 kts 275°
2026-05-06 12:34 52.42057 -10.47527 36041 ft 482 kts 275°
2026-05-06 12:35 52.42455 -10.58507 36047 ft 482 kts 275°
2026-05-06 12:35 52.42843 -10.69489 36042 ft 483 kts 275°
2026-05-06 12:36 52.43220 -10.80470 36049 ft 483 kts 275°
2026-05-06 12:36 52.43588 -10.91469 36051 ft 483 kts 275°
2026-05-06 12:37 52.43945 -11.02455 36051 ft 483 kts 275°
2026-05-06 12:37 52.44293 -11.13461 36049 ft 483 kts 275°
2026-05-06 12:38 52.44630 -11.24465 36049 ft 483 kts 275°
2026-05-06 12:38 52.44955 -11.35398 36052 ft 483 kts 275°
2026-05-06 12:39 52.45272 -11.46393 36045 ft 483 kts 275°
2026-05-06 12:39 52.45578 -11.57390 36047 ft 483 kts 275°
2026-05-06 12:40 52.45876 -11.68475 36047 ft 483 kts 275°
2026-05-06 12:40 52.45948 -11.71178 36050 ft 483 kts 275°
2026-05-06 12:41 52.46074 -11.76021 36050 ft 483 kts 275°
2026-05-06 12:41 52.46180 -11.80178 36051 ft 483 kts 275°
2026-05-06 12:42 52.46262 -11.83422 36047 ft 483 kts 275°
2026-05-06 12:42 52.46402 -11.89006 36050 ft 483 kts 275°
2026-05-06 12:43 52.46670 -12.00069 36052 ft 483 kts 275°
2026-05-06 12:43 52.46926 -12.11025 36048 ft 483 kts 275°
2026-05-06 12:44 52.47172 -12.22031 36049 ft 483 kts 275°
2026-05-06 12:44 52.47409 -12.33080 36051 ft 483 kts 275°
2026-05-06 12:45 52.47635 -12.44075 36051 ft 483 kts 275°
2026-05-06 12:46 52.47954 -12.60570 36049 ft 482 kts 275°
2026-05-06 12:46 52.48153 -12.71495 36065 ft 482 kts 275°
2026-05-06 12:47 52.48343 -12.82444 36045 ft 482 kts 275°
2026-05-06 12:47 52.48523 -12.93479 36045 ft 482 kts 275°
2026-05-06 12:48 52.48693 -13.04485 36061 ft 482 kts 274°
2026-05-06 12:48 52.48852 -13.15474 36062 ft 482 kts 274°
2026-05-06 12:49 52.49001 -13.26448 36052 ft 482 kts 274°
2026-05-06 12:49 52.49140 -13.37428 36053 ft 481 kts 274°
2026-05-06 12:50 52.49268 -13.48388 36053 ft 481 kts 274°
2026-05-06 12:50 52.49386 -13.59320 36056 ft 481 kts 274°
2026-05-06 12:51 52.49494 -13.70226 36051 ft 481 kts 274°
2026-05-06 12:51 52.49593 -13.81304 36052 ft 481 kts 274°
2026-05-06 12:52 52.49681 -13.92235 36054 ft 481 kts 274°
2026-05-06 12:52 52.49759 -14.03253 36055 ft 480 kts 274°
2026-05-06 12:53 52.49827 -14.14233 36056 ft 480 kts 274°
2026-05-06 12:53 52.49884 -14.25114 36056 ft 480 kts 273°
2026-05-06 12:54 52.49931 -14.35852 36055 ft 480 kts 273°
2026-05-06 12:54 52.49968 -14.46962 36054 ft 480 kts 273°
2026-05-06 12:55 52.49996 -14.57970 36055 ft 480 kts 273°
2026-05-06 12:55 52.50011 -14.67065 36056 ft 480 kts 273°
2026-05-06 12:56 52.50020 -14.77992 36056 ft 479 kts 273°
2026-05-06 12:56 52.50018 -14.88958 36054 ft 479 kts 272°
2026-05-06 12:57 52.50167 -14.99861 36055 ft 477 kts 279°
2026-05-06 12:57 52.51288 -15.10564 36052 ft 474 kts 283°
2026-05-06 12:58 52.52541 -15.21017 36053 ft 474 kts 284°
2026-05-06 12:58 52.53837 -15.31708 36051 ft 474 kts 283°
2026-05-06 12:59 52.55109 -15.42347 36050 ft 474 kts 283°
2026-05-06 12:59 52.56363 -15.52961 36052 ft 474 kts 283°
2026-05-06 13:00 52.57611 -15.63623 36049 ft 473 kts 283°
2026-05-06 13:00 52.58833 -15.74142 36049 ft 473 kts 283°
2026-05-06 13:01 52.60064 -15.84815 36048 ft 473 kts 282°
2026-05-06 13:01 52.61271 -15.95431 36059 ft 472 kts 283°
2026-05-06 13:02 52.62477 -16.06085 36048 ft 472 kts 283°
2026-05-06 13:02 52.63672 -16.16717 36044 ft 472 kts 282°
2026-05-06 13:03 52.64857 -16.27350 36047 ft 472 kts 282°
2026-05-06 13:03 52.66033 -16.37995 36042 ft 472 kts 282°
2026-05-06 13:04 52.67189 -16.48561 36044 ft 472 kts 282°
2026-05-06 13:04 52.68351 -16.59274 36044 ft 472 kts 282°
2026-05-06 13:05 52.69494 -16.69904 36047 ft 472 kts 282°
2026-05-06 13:05 52.70624 -16.80510 36045 ft 471 kts 282°
2026-05-06 13:06 52.71748 -16.91151 36045 ft 471 kts 282°
2026-05-06 13:06 52.72864 -17.01816 36043 ft 471 kts 281°
2026-05-06 13:07 52.73962 -17.12398 36041 ft 471 kts 281°
2026-05-06 13:07 52.75065 -17.23129 36044 ft 470 kts 281°
2026-05-06 13:08 52.76141 -17.33700 36045 ft 470 kts 281°
2026-05-06 13:08 52.77217 -17.44362 36037 ft 470 kts 281°
2026-05-06 13:09 52.78284 -17.55042 36036 ft 470 kts 281°
2026-05-06 13:09 52.79332 -17.65629 36051 ft 470 kts 281°
2026-05-06 13:10 52.80382 -17.76332 36046 ft 470 kts 280°
2026-05-06 13:10 52.81418 -17.87005 36033 ft 470 kts 280°
2026-05-06 13:11 52.82446 -17.97696 36044 ft 471 kts 280°
2026-05-06 13:11 52.83458 -18.08317 36046 ft 470 kts 280°
2026-05-06 13:12 52.84467 -18.19022 36044 ft 471 kts 279°
2026-05-06 13:12 52.85466 -18.29730 36042 ft 471 kts 279°
2026-05-06 13:13 52.86456 -18.40445 36038 ft 471 kts 279°
2026-05-06 13:13 52.87433 -18.51123 36039 ft 471 kts 279°
2026-05-06 13:14 52.88399 -18.61793 36039 ft 471 kts 279°
2026-05-06 13:14 52.89365 -18.72575 36039 ft 471 kts 279°
2026-05-06 13:15 52.90319 -18.83340 36039 ft 471 kts 279°
2026-05-06 13:15 52.91253 -18.93995 36039 ft 471 kts 278°
2026-05-06 13:16 52.92190 -19.04790 36040 ft 471 kts 278°
2026-05-06 13:16 52.93113 -19.15543 36041 ft 472 kts 278°
2026-05-06 13:17 52.94024 -19.26275 36038 ft 472 kts 278°
2026-05-06 13:17 52.94934 -19.37121 36038 ft 472 kts 278°
2026-05-06 13:18 52.95823 -19.47823 36042 ft 472 kts 278°
2026-05-06 13:18 52.96715 -19.58702 36038 ft 472 kts 277°
2026-05-06 13:19 52.97584 -19.69407 36041 ft 472 kts 277°
2026-05-06 13:19 52.98451 -19.80220 36040 ft 472 kts 277°
2026-05-06 13:20 52.99305 -19.90999 36044 ft 472 kts 277°
2026-05-06 13:20 53.00151 -20.01795 36025 ft 473 kts 277°
2026-05-06 13:21 53.00723 -20.12670 36043 ft 473 kts 273°
2026-05-06 13:21 53.01063 -20.23626 36045 ft 473 kts 272°
2026-05-06 13:22 53.01416 -20.34396 36029 ft 473 kts 273°
2026-05-06 13:22 53.01820 -20.45258 36051 ft 472 kts 273°
2026-05-06 13:23 53.02241 -20.56319 36044 ft 473 kts 273°
2026-05-06 13:23 53.02646 -20.67239 36035 ft 473 kts 272°
2026-05-06 13:24 53.03038 -20.78145 36045 ft 473 kts 272°
2026-05-06 13:24 53.03416 -20.88969 36049 ft 473 kts 272°
2026-05-06 13:25 53.03788 -20.99891 36036 ft 473 kts 272°
2026-05-06 13:25 53.04151 -21.10841 36050 ft 473 kts 272°
2026-05-06 13:26 53.04503 -21.21763 36046 ft 474 kts 272°
2026-05-06 13:26 53.04825 -21.32054 36050 ft 474 kts 272°
2026-05-06 13:27 53.05156 -21.42924 36042 ft 474 kts 272°
2026-05-06 13:27 53.05479 -21.53860 36045 ft 474 kts 271°
2026-05-06 13:28 53.05792 -21.64823 36046 ft 474 kts 271°
2026-05-06 13:28 53.06092 -21.75646 36039 ft 474 kts 271°
2026-05-06 13:29 53.06386 -21.86626 36043 ft 474 kts 271°
2026-05-06 13:29 53.06669 -21.97579 36047 ft 474 kts 271°
2026-05-06 13:30 53.06940 -22.08461 36047 ft 474 kts 271°
2026-05-06 13:30 53.07203 -22.19427 36053 ft 475 kts 271°
2026-05-06 13:31 53.07456 -22.30416 36055 ft 475 kts 271°
2026-05-06 13:31 53.07700 -22.41396 36058 ft 476 kts 270°
2026-05-06 13:32 53.07934 -22.52421 36055 ft 476 kts 270°
2026-05-06 13:32 53.08156 -22.63356 36050 ft 476 kts 270°
2026-05-06 13:33 53.08369 -22.74373 36056 ft 477 kts 270°
2026-05-06 13:33 53.08573 -22.85415 36061 ft 477 kts 270°
2026-05-06 13:34 53.08767 -22.96444 36057 ft 477 kts 270°
2026-05-06 13:34 53.08950 -23.07491 36055 ft 478 kts 269°
2026-05-06 13:35 53.09124 -23.18571 36053 ft 478 kts 269°
2026-05-06 13:35 53.09287 -23.29639 36056 ft 478 kts 269°
2026-05-06 13:36 53.09440 -23.40709 36052 ft 479 kts 269°
2026-05-06 13:36 53.09583 -23.51787 36053 ft 479 kts 269°
2026-05-06 13:37 53.09715 -23.62806 36055 ft 480 kts 269°
2026-05-06 13:37 53.09837 -23.73907 36055 ft 480 kts 269°
2026-05-06 13:38 53.09950 -23.85018 36057 ft 480 kts 269°
2026-05-06 13:38 53.10052 -23.96133 36057 ft 480 kts 269°
2026-05-06 13:39 53.10143 -24.07259 36058 ft 481 kts 268°
2026-05-06 13:39 53.10225 -24.18380 36061 ft 481 kts 268°
2026-05-06 13:40 53.10296 -24.29519 36060 ft 481 kts 268°
2026-05-06 13:40 53.10356 -24.40654 36053 ft 481 kts 268°
2026-05-06 13:41 53.10407 -24.51784 36061 ft 481 kts 268°
2026-05-06 13:41 53.10446 -24.62932 36061 ft 481 kts 268°
2026-05-06 13:42 53.10476 -24.73991 36052 ft 481 kts 268°
2026-05-06 13:42 53.10495 -24.85125 36060 ft 481 kts 268°
2026-05-06 13:43 53.10503 -24.96270 36064 ft 481 kts 268°
2026-05-06 13:43 53.10502 -25.07409 36052 ft 481 kts 268°
2026-05-06 13:44 53.10490 -25.18559 36060 ft 481 kts 268°
2026-05-06 13:44 53.10467 -25.29623 36051 ft 481 kts 267°
2026-05-06 13:45 53.10434 -25.40762 36052 ft 481 kts 267°
2026-05-06 13:45 53.10374 -25.55589 36048 ft 481 kts 267°
2026-05-06 13:46 53.10317 -25.66736 36050 ft 481 kts 267°
2026-05-06 13:46 53.10250 -25.77876 36055 ft 481 kts 267°
2026-05-06 13:47 53.10172 -25.89005 36049 ft 481 kts 267°
2026-05-06 13:47 53.10083 -26.00129 36051 ft 481 kts 267°
2026-05-06 13:48 53.09985 -26.11216 36050 ft 481 kts 267°
2026-05-06 13:48 53.09876 -26.22339 36048 ft 481 kts 267°
2026-05-06 13:49 53.09757 -26.33471 36049 ft 481 kts 267°
2026-05-06 13:49 53.09627 -26.44588 36045 ft 481 kts 267°
2026-05-06 13:50 53.09487 -26.55713 36046 ft 481 kts 267°
2026-05-06 13:50 53.09337 -26.66842 36045 ft 481 kts 267°
2026-05-06 13:51 53.09176 -26.77956 36042 ft 481 kts 267°
2026-05-06 13:51 53.09025 -26.87756 36041 ft 481 kts 267°
2026-05-06 13:52 53.08845 -26.98874 36034 ft 480 kts 267°
2026-05-06 13:52 53.08655 -27.09996 36037 ft 481 kts 266°
2026-05-06 13:53 53.08454 -27.21114 36033 ft 481 kts 266°
2026-05-06 13:53 53.08244 -27.32155 36037 ft 480 kts 266°
2026-05-06 13:54 53.08022 -27.43257 36037 ft 480 kts 266°
2026-05-06 13:54 53.07791 -27.54360 36029 ft 480 kts 266°
2026-05-06 13:55 53.07548 -27.65472 36032 ft 480 kts 266°
2026-05-06 13:55 53.07295 -27.76599 36146 ft 482 kts 266°
2026-05-06 13:56 53.07164 -27.82160 36430 ft 481 kts 266°
2026-05-06 13:56 53.07032 -27.87703 36700 ft 480 kts 266°
2026-05-06 13:56 53.06896 -27.93244 36929 ft 480 kts 266°
2026-05-06 13:56 53.06759 -27.98781 37162 ft 480 kts 266°
2026-05-06 13:57 53.06618 -28.04330 37371 ft 480 kts 267°
2026-05-06 13:57 53.06475 -28.09876 37577 ft 480 kts 267°
2026-05-06 13:57 53.06330 -28.15411 37783 ft 480 kts 267°
2026-05-06 13:57 53.06182 -28.20958 37981 ft 480 kts 267°
2026-05-06 13:58 53.06031 -28.26499 38177 ft 480 kts 267°
2026-05-06 13:58 53.05878 -28.32046 38353 ft 480 kts 267°
2026-05-06 13:58 53.05724 -28.37514 38535 ft 480 kts 267°
2026-05-06 13:58 53.05566 -28.43061 38702 ft 480 kts 267°
2026-05-06 13:59 53.05404 -28.48627 38830 ft 480 kts 267°
2026-05-06 13:59 53.05240 -28.54180 38942 ft 481 kts 267°
2026-05-06 13:59 53.04904 -28.65311 39016 ft 482 kts 267°
2026-05-06 14:00 53.04558 -28.76431 39008 ft 482 kts 267°
2026-05-06 14:00 53.04204 -28.87479 39010 ft 481 kts 266°
2026-05-06 14:01 53.03837 -28.98585 39009 ft 482 kts 266°
2026-05-06 14:01 53.03459 -29.09711 39005 ft 482 kts 266°
2026-05-06 14:02 53.03071 -29.20841 39003 ft 482 kts 266°
2026-05-06 14:02 53.02672 -29.31971 39002 ft 483 kts 266°
2026-05-06 14:03 53.02265 -29.43038 39001 ft 483 kts 266°
2026-05-06 14:03 53.01846 -29.54169 38998 ft 483 kts 266°
2026-05-06 14:04 53.01414 -29.65325 38991 ft 483 kts 266°
2026-05-06 14:04 53.00974 -29.76453 38991 ft 483 kts 266°
2026-05-06 14:05 53.00523 -29.87584 38992 ft 483 kts 266°
2026-05-06 14:05 53.00061 -29.98734 38990 ft 484 kts 266°
2026-05-06 14:06 52.99753 -30.09883 38992 ft 484 kts 269°
2026-05-06 14:06 52.99707 -30.20981 38992 ft 484 kts 270°
2026-05-06 14:07 52.99684 -30.32143 38990 ft 484 kts 269°
2026-05-06 14:07 52.99601 -30.43315 38991 ft 484 kts 269°
2026-05-06 14:08 52.99474 -30.54491 38991 ft 484 kts 269°
2026-05-06 14:08 52.99329 -30.65666 38999 ft 483 kts 269°
2026-05-06 14:09 52.99175 -30.76793 39001 ft 482 kts 269°
2026-05-06 14:09 52.99012 -30.87917 39003 ft 482 kts 269°
2026-05-06 14:10 52.98841 -30.99027 39001 ft 482 kts 268°
2026-05-06 14:10 52.98658 -31.10162 39013 ft 482 kts 268°
2026-05-06 14:11 52.98465 -31.21287 39011 ft 482 kts 268°
2026-05-06 14:11 52.98264 -31.32307 39011 ft 481 kts 268°
2026-05-06 14:12 52.98050 -31.43415 39019 ft 481 kts 268°
2026-05-06 14:12 52.97826 -31.54554 39021 ft 481 kts 268°
2026-05-06 14:13 52.97592 -31.65655 39025 ft 482 kts 268°
2026-05-06 14:13 52.97349 -31.76688 39029 ft 482 kts 268°
2026-05-06 14:14 52.97094 -31.87796 39026 ft 482 kts 268°
2026-05-06 14:14 52.96829 -31.98908 39034 ft 482 kts 268°
2026-05-06 14:15 52.96553 -32.10020 39033 ft 482 kts 268°
2026-05-06 14:15 52.96267 -32.21128 39035 ft 482 kts 268°
2026-05-06 14:16 52.95970 -32.32242 39044 ft 482 kts 267°
2026-05-06 14:16 52.95663 -32.43372 39043 ft 483 kts 267°
2026-05-06 14:17 52.95345 -32.54498 39044 ft 483 kts 267°
2026-05-06 14:17 52.95017 -32.65622 39048 ft 483 kts 267°
2026-05-06 14:18 52.94681 -32.76678 39051 ft 483 kts 267°
2026-05-06 14:18 52.94332 -32.87803 39054 ft 483 kts 267°
2026-05-06 14:19 52.93972 -32.98939 39057 ft 483 kts 267°
2026-05-06 14:19 52.93602 -33.10062 39056 ft 483 kts 267°
2026-05-06 14:20 52.93222 -33.21182 39059 ft 483 kts 267°
2026-05-06 14:20 52.92831 -33.32285 39067 ft 483 kts 267°
2026-05-06 14:21 52.92431 -33.43394 39071 ft 483 kts 267°
2026-05-06 14:21 52.92020 -33.54503 39070 ft 483 kts 267°
2026-05-06 14:22 52.91598 -33.65615 39069 ft 483 kts 266°
2026-05-06 14:22 52.91166 -33.76716 39074 ft 483 kts 266°
2026-05-06 14:23 52.90726 -33.87773 39078 ft 483 kts 266°
2026-05-06 14:23 52.90273 -33.98878 39077 ft 484 kts 266°
2026-05-06 14:24 52.89809 -34.10016 39082 ft 484 kts 266°
2026-05-06 14:24 52.89335 -34.21135 39083 ft 484 kts 266°
2026-05-06 14:25 52.88850 -34.32246 39083 ft 484 kts 266°
2026-05-06 14:25 52.88355 -34.43354 39085 ft 484 kts 266°
2026-05-06 14:26 52.87850 -34.54471 39086 ft 484 kts 266°
2026-05-06 14:26 52.87335 -34.65558 39087 ft 483 kts 266°
2026-05-06 14:27 52.86809 -34.76658 39084 ft 483 kts 266°
2026-05-06 14:27 52.86274 -34.87739 39098 ft 483 kts 266°
2026-05-06 14:28 52.85728 -34.98820 39093 ft 483 kts 266°
2026-05-06 14:28 52.85176 -35.09821 39097 ft 483 kts 266°
2026-05-06 14:29 52.84606 -35.20965 39090 ft 483 kts 266°
2026-05-06 14:29 52.84033 -35.31960 39096 ft 482 kts 266°
2026-05-06 14:30 52.83447 -35.43015 39100 ft 482 kts 266°
2026-05-06 14:30 52.82851 -35.54060 39097 ft 482 kts 266°
2026-05-06 14:31 52.82244 -35.65121 39099 ft 482 kts 266°
2026-05-06 14:31 52.81627 -35.76163 39094 ft 482 kts 266°
2026-05-06 14:32 52.81005 -35.87113 39101 ft 481 kts 266°
2026-05-06 14:32 52.80369 -35.98125 39102 ft 481 kts 266°
2026-05-06 14:33 52.79724 -36.09126 39102 ft 481 kts 266°
2026-05-06 14:33 52.79067 -36.20144 39097 ft 481 kts 266°
2026-05-06 14:34 52.78515 -36.29277 39098 ft 481 kts 266°
2026-05-06 14:34 52.77842 -36.40249 39100 ft 480 kts 266°
2026-05-06 14:35 52.77046 -36.53007 39100 ft 480 kts 266°
2026-05-06 14:35 52.76464 -36.62207 39098 ft 480 kts 266°
2026-05-06 14:36 52.75760 -36.73169 39101 ft 480 kts 266°
2026-05-06 14:36 52.75051 -36.84062 39102 ft 480 kts 265°
2026-05-06 14:37 52.74328 -36.95016 39102 ft 480 kts 265°
2026-05-06 14:37 52.73594 -37.05972 39104 ft 480 kts 265°
2026-05-06 14:38 52.72850 -37.16922 39102 ft 480 kts 265°
2026-05-06 14:38 52.72096 -37.27873 39102 ft 480 kts 265°
2026-05-06 14:39 52.71332 -37.38810 39105 ft 480 kts 265°
2026-05-06 14:39 52.70558 -37.49755 39108 ft 480 kts 265°
2026-05-06 14:40 52.69773 -37.60690 39110 ft 480 kts 265°
2026-05-06 14:40 52.68980 -37.71608 39105 ft 480 kts 265°
2026-05-06 14:41 52.68176 -37.82536 39111 ft 480 kts 265°
2026-05-06 14:41 52.67367 -37.93384 39106 ft 480 kts 265°
2026-05-06 14:42 52.66543 -38.04301 39106 ft 480 kts 265°
2026-05-06 14:42 52.65709 -38.15211 39110 ft 480 kts 265°
2026-05-06 14:43 52.64872 -38.26029 39120 ft 479 kts 265°
2026-05-06 14:43 52.64014 -38.36984 39107 ft 479 kts 265°
2026-05-06 14:44 52.63150 -38.47874 39115 ft 479 kts 265°
2026-05-06 14:45 52.61838 -38.64178 39114 ft 479 kts 264°
2026-05-06 14:45 52.60957 -38.74978 39116 ft 479 kts 264°
2026-05-06 14:46 52.60061 -38.85824 39113 ft 478 kts 264°
2026-05-06 14:46 52.59155 -38.96664 39122 ft 478 kts 264°
2026-05-06 14:47 52.58240 -39.07491 39121 ft 478 kts 264°
2026-05-06 14:47 52.57315 -39.18320 39121 ft 478 kts 264°
2026-05-06 14:48 52.56381 -39.29131 39125 ft 477 kts 264°
2026-05-06 14:48 52.55439 -39.39921 39123 ft 477 kts 264°
2026-05-06 14:49 52.54488 -39.50696 39125 ft 477 kts 264°
2026-05-06 14:49 52.53527 -39.61466 39123 ft 476 kts 264°
2026-05-06 14:50 52.52557 -39.72218 39119 ft 476 kts 264°
2026-05-06 14:50 52.51583 -39.82915 39125 ft 475 kts 264°
2026-05-06 14:51 52.50594 -39.93653 39121 ft 475 kts 264°
2026-05-06 14:51 52.49152 -40.04255 39121 ft 478 kts 257°
2026-05-06 14:52 52.47178 -40.14659 39120 ft 478 kts 255°
2026-05-06 14:52 52.45118 -40.24954 39123 ft 478 kts 255°
2026-05-06 14:53 52.43039 -40.35295 39123 ft 477 kts 255°
2026-05-06 14:53 52.40969 -40.45620 39120 ft 477 kts 255°
2026-05-06 14:54 52.38902 -40.55913 39124 ft 476 kts 255°
2026-05-06 14:54 52.36825 -40.66206 39122 ft 475 kts 255°
2026-05-06 14:55 52.34742 -40.76474 39123 ft 475 kts 255°
2026-05-06 14:55 52.32655 -40.86706 39127 ft 474 kts 255°
2026-05-06 14:56 52.30557 -40.96934 39128 ft 474 kts 255°
2026-05-06 14:56 52.28456 -41.07126 39127 ft 474 kts 255°
2026-05-06 14:57 52.26345 -41.17318 39132 ft 473 kts 255°
2026-05-06 14:57 52.24228 -41.27480 39134 ft 473 kts 255°
2026-05-06 14:58 52.22117 -41.37567 39138 ft 472 kts 255°
2026-05-06 14:58 52.19987 -41.47696 39135 ft 472 kts 255°
2026-05-06 14:59 52.17849 -41.57811 39136 ft 472 kts 255°
2026-05-06 14:59 52.15704 -41.67905 39139 ft 471 kts 255°
2026-05-06 15:00 52.13550 -41.77993 39138 ft 471 kts 255°
2026-05-06 15:00 52.11389 -41.88062 39140 ft 471 kts 255°
2026-05-06 15:01 52.09220 -41.98121 39144 ft 471 kts 255°
2026-05-06 15:01 52.07044 -42.08165 39141 ft 471 kts 255°
2026-05-06 15:02 52.04859 -42.18200 39143 ft 471 kts 255°
2026-05-06 15:02 52.02679 -42.28162 39157 ft 471 kts 255°
2026-05-06 15:03 52.00473 -42.38191 39141 ft 471 kts 255°
2026-05-06 15:03 51.98263 -42.48193 39154 ft 470 kts 255°
2026-05-06 15:04 51.96051 -42.58155 39155 ft 470 kts 255°
2026-05-06 15:04 51.93831 -42.68106 39150 ft 469 kts 254°
2026-05-06 15:05 51.91605 -42.78038 39156 ft 468 kts 254°
2026-05-06 15:05 51.89377 -42.87929 39155 ft 467 kts 254°
2026-05-06 15:06 51.87144 -42.97798 39159 ft 466 kts 254°
2026-05-06 15:06 51.84921 -43.07576 39158 ft 466 kts 254°
2026-05-06 15:07 51.82677 -43.17401 39156 ft 465 kts 254°
2026-05-06 15:07 51.80429 -43.27200 39150 ft 464 kts 254°
2026-05-06 15:08 51.78178 -43.36967 39153 ft 464 kts 254°
2026-05-06 15:08 51.75921 -43.46715 39154 ft 463 kts 254°
2026-05-06 15:09 51.73664 -43.56417 39152 ft 462 kts 254°
2026-05-06 15:09 51.71396 -43.66122 39155 ft 461 kts 254°
2026-05-06 15:10 51.69144 -43.75714 39155 ft 460 kts 254°
2026-05-06 15:10 51.66875 -43.85340 39150 ft 459 kts 254°
2026-05-06 15:11 51.64600 -43.94944 39157 ft 458 kts 254°
2026-05-06 15:11 51.62319 -44.04533 39162 ft 457 kts 254°
2026-05-06 15:12 51.60048 -44.14039 39144 ft 456 kts 254°
2026-05-06 15:12 51.57751 -44.23609 39151 ft 455 kts 253°
2026-05-06 15:13 51.55480 -44.33032 39151 ft 455 kts 253°
2026-05-06 15:13 51.53190 -44.42488 39147 ft 454 kts 253°
2026-05-06 15:14 51.50897 -44.51921 39147 ft 453 kts 253°
2026-05-06 15:14 51.48600 -44.61327 39147 ft 452 kts 253°
2026-05-06 15:15 51.46296 -44.70725 39145 ft 452 kts 253°
2026-05-06 15:15 51.43987 -44.80102 39146 ft 452 kts 253°
2026-05-06 15:16 51.41676 -44.89447 39140 ft 451 kts 253°
2026-05-06 15:16 51.39355 -44.98792 39135 ft 451 kts 253°
2026-05-06 15:17 51.37046 -45.08052 39138 ft 450 kts 253°
2026-05-06 15:17 51.34715 -45.17361 39135 ft 450 kts 253°
2026-05-06 15:18 51.32381 -45.26641 39137 ft 450 kts 252°
2026-05-06 15:18 51.30039 -45.35914 39137 ft 449 kts 252°
2026-05-06 15:19 51.27692 -45.45170 39136 ft 449 kts 252°
2026-05-06 15:19 51.25340 -45.54409 39130 ft 449 kts 252°
2026-05-06 15:20 51.22981 -45.63637 39129 ft 449 kts 252°
2026-05-06 15:20 51.20611 -45.72865 39130 ft 449 kts 252°
2026-05-06 15:21 51.18234 -45.82087 39128 ft 449 kts 252°
2026-05-06 15:21 51.15869 -45.91226 39127 ft 449 kts 252°
2026-05-06 15:22 51.13480 -46.00421 39128 ft 449 kts 252°
2026-05-06 15:22 51.11080 -46.09620 39125 ft 449 kts 251°
2026-05-06 15:23 51.08676 -46.18796 39123 ft 449 kts 251°
2026-05-06 15:23 51.06671 -46.26422 39121 ft 450 kts 251°
2026-05-06 15:24 51.04251 -46.35591 39121 ft 450 kts 251°
2026-05-06 15:24 51.01822 -46.44759 39119 ft 450 kts 251°
2026-05-06 15:25 50.99385 -46.53916 39118 ft 451 kts 251°
2026-05-06 15:25 50.96937 -46.63081 39117 ft 451 kts 251°
2026-05-06 15:26 50.94481 -46.72238 39114 ft 451 kts 251°
2026-05-06 15:26 50.92016 -46.81391 39113 ft 451 kts 251°
2026-05-06 15:27 50.89542 -46.90542 39114 ft 451 kts 250°
2026-05-06 15:27 50.87065 -46.99670 39114 ft 451 kts 250°
2026-05-06 15:28 50.84580 -47.08790 39109 ft 451 kts 250°